CW3806 Weather Reports


Display with metric or nautical units.
time (UTC)temp
F
wind
direction
speed
MPH
gust
MPH
rain 1hr
in
rain 24hr
in
rain mn
in
humidity
%
barometer
mb
20260509123604 48 146 0.0 2.0 0.06 0.30 0.29 94 1008.8
20260509123104 47 146 1.0 3.0 0.07 0.30 0.29 94 1008.8
20260509122604 47 146 1.0 3.0 0.08 0.30 0.29 94 1008.8
20260509122104 47 146 2.0 3.0 0.08 0.29 0.28 94 1008.8
20260509121605 47 146 2.0 3.0 0.09 0.29 0.28 94 1009.1
20260509120104 47 146 1.0 5.0 0.11 0.27 0.26 94 1009.1
20260509115604 47 146 1.0 5.0 0.11 0.26 0.25 94 1009.1
20260509115104 47 146 2.0 5.0 0.11 0.25 0.24 94 1009.1
20260509114605 47 146 1.0 3.0 0.12 0.25 0.24 94 1009.1
20260509114104 47 146 0.0 3.0 0.12 0.24 0.23 94 1009.1
20260509113105 47 146 2.0 5.0 0.12 0.23 0.22 94 1009.0
20260509112604 47 146 0.0 3.0 0.12 0.22 0.21 94 1009.0
20260509112105 47 146 1.0 3.0 0.12 0.21 0.20 93 1009.0
20260509110605 47 146 0.0 5.0 0.12 0.17 0.16 93 1008.9
20260509110105 47 146 1.0 7.0 0.11 0.16 0.15 93 1008.9
20260509105605 47 148 2.0 7.0 0.11 0.15 0.14 93 1008.6
20260509104605 47 161 0.0 5.0 0.09 0.13 0.12 93 1008.6
20260509104108 47 161 0.0 3.0 0.09 0.12 0.11 93 1008.6
20260509103605 47 161 0.0 3.0 0.09 0.12 0.11 93 1008.6
20260509102605 46 161 1.0 2.0 0.07 0.10 0.09 93 1008.6
20260509101605 46 161 0.0 5.0 0.04 0.07 0.06 93 1008.6
20260509101105 46 161 1.0 5.0 0.03 0.06 0.05 93 1008.6
20260509100105 46 162 1.0 6.0 0.02 0.05 0.04 93 1010.1
20260509095104 46 169 1.0 5.0 0.01 0.04 0.03 93 1010.1
20260509094605 46 170 1.0 7.0 0.01 0.04 0.03 93 1010.1
20260509094104 46 164 1.0 7.0 0.00 0.03 0.02 92 1010.1
20260509093605 46 192 0.0 3.0 0.00 0.03 0.02 92 1010.1
20260509093104 46 192 0.0 3.0 0.00 0.03 0.02 92 1010.1
20260509092104 46 192 0.0 3.0 0.00 0.03 0.02 92 1010.1
20260509091605 46 192 0.0 2.0 0.00 0.03 0.02 92 1010.1
20260509091104 46 192 0.0 3.0 0.00 0.03 0.02 92 1010.1
20260509090605 46 192 1.0 3.0 0.00 0.03 0.02 92 1010.1
20260509090104 46 207 0.0 1.0 0.00 0.03 0.02 92 1010.1
20260509085604 46 207 0.0 3.0 0.00 0.03 0.02 92 1010.1
20260509085104 46 207 0.0 3.0 0.00 0.03 0.02 92 1010.1
20260509084604 46 207 1.0 3.0 0.00 0.03 0.02 92 1010.1
20260509084104 46 207 0.0 1.0 0.00 0.03 0.02 92 1010.1
20260509083604 46 207 0.0 1.0 0.00 0.03 0.02 92 1010.1
20260509083105 46 207 0.0 1.0 0.00 0.03 0.02 92 1010.1
20260509082604 46 207 0.0 0.0 0.00 0.03 0.02 91 1010.1
20260509082104 46 207 0.0 0.0 0.00 0.03 0.02 91 1010.1
20260509081104 46 207 0.0 1.0 0.00 0.03 0.02 91 1010.1
20260509080604 46 207 0.0 1.0 0.00 0.03 0.02 91 1010.1
20260509080105 47 207 0.0 0.0 0.00 0.03 0.02 91 1010.1
20260509075605 47 207 0.0 0.0 0.01 0.03 0.02 91 1010.1
20260509075105 47 207 0.0 1.0 0.01 0.03 0.02 91 1010.1
20260509074105 47 207 0.0 2.0 0.01 0.03 0.02 91 1010.1
20260509073605 47 207 0.0 1.0 0.01 0.03 0.02 91 1010.1
20260509073105 47 207 0.0 1.0 0.01 0.03 0.02 91 1010.1
20260509072604 47 207 0.0 1.0 0.01 0.03 0.02 91 1010.1
20260509072105 47 207 0.0 2.0 0.01 0.03 0.02 91 1010.1
20260509071604 47 207 1.0 2.0 0.01 0.03 0.02 91 1010.1
20260509071104 47 207 1.0 3.0 0.01 0.03 0.02 91 1010.1
20260509070604 47 207 0.0 3.0 0.01 0.03 0.02 91 1010.1
20260509070104 47 207 1.0 5.0 0.02 0.03 0.02 91 1010.1
20260509065605 47 207 1.0 5.0 0.01 0.02 0.01 90 1010.1
20260509065104 47 209 1.0 6.0 0.01 0.02 0.01 90 1010.1
20260509064604 47 209 1.0 6.0 0.01 0.02 0.01 90 1010.1
20260509064105 47 202 2.0 5.0 0.01 0.02 0.01 90 1010.1
20260509063605 47 203 2.0 5.0 0.01 0.02 0.01 90 1010.1
20260509063105 47 200 1.0 3.0 0.01 0.02 0.01 90 1010.1
20260509062604 47 199 0.0 3.0 0.01 0.02 0.01 89 1010.1
20260509062105 47 199 0.0 2.0 0.01 0.02 0.01 89 1010.1
20260509061605 47 199 0.0 2.0 0.01 0.02 0.01 89 1010.1
20260509061104 47 199 0.0 1.0 0.01 0.02 0.01 89 1010.1
20260509060104 47 199 0.0 1.0 0.00 0.01 0.00 89 1010.1
20260509055604 47 199 0.0 1.0 0.00 0.01 0.00 89 1010.1
20260509055104 47 199 0.0 2.0 0.00 0.01 0.00 88 1010.1
20260509054105 47 199 0.0 5.0 0.00 0.01 0.00 88 1010.1
20260509053605 47 199 1.0 3.0 0.00 0.01 0.00 88 1010.1
20260509053105 47 199 1.0 3.0 0.00 0.01 0.00 87 1010.1
20260509052604 46 200 2.0 5.0 0.00 0.01 0.00 87 1010.1
20260509052105 46 190 1.0 6.0 0.00 0.01 0.00 86 1010.1
20260509051604 46 194 2.0 6.0 0.00 0.01 0.00 85 1010.1
20260509051104 46 195 1.0 5.0 0.00 0.01 0.00 85 1010.1
20260509050604 45 196 2.0 6.0 0.00 0.01 0.00 84 1010.1
20260509045604 45 194 3.0 6.0 0.00 0.01 0.00 81 1010.1
20260509045104 45 179 2.0 6.0 0.00 0.01 0.00 79 1010.3
20260509044605 45 132 0.0 2.0 0.00 0.01 0.00 79 1010.3
20260509044105 45 62 0.0 0.0 0.00 0.01 0.00 78 1010.3
20260509043105 45 62 0.0 1.0 0.00 0.01 0.00 76 1010.3
20260509042605 45 62 0.0 3.0 0.00 0.01 0.00 76 1010.3
20260509042105 45 62 1.0 3.0 0.00 0.01 0.00 75 1010.3
20260509041605 45 22 0.0 1.0 0.00 0.01 0.00 75 1010.3
20260509040604 45 22 0.0 1.0 0.00 0.01 0.00 75 1010.3
20260509040104 45 22 0.0 1.0 0.00 0.01 0.00 76 1010.3
20260509035605 45 22 0.0 1.0 0.00 0.01 0.01 76 1010.3
20260509034605 45 22 0.0 1.0 0.00 0.01 0.01 77 1010.3
20260509034105 45 22 0.0 1.0 0.00 0.01 0.01 76 1010.3
20260509033104 45 22 0.0 1.0 0.00 0.01 0.01 75 1010.3
20260509032604 45 22 0.0 1.0 0.00 0.01 0.01 75 1010.3
20260509032104 45 5 0.0 1.0 0.00 0.01 0.01 74 1010.3
20260509031604 45 5 0.0 1.0 0.00 0.01 0.01 73 1010.3
20260509031104 45 5 0.0 0.0 0.00 0.01 0.01 72 1010.3
20260509030604 45 5 0.0 0.0 0.00 0.01 0.01 72 1010.3
20260509025605 45 5 0.0 0.0 0.00 0.01 0.01 71 1010.3
20260509025105 45 5 0.0 0.0 0.00 0.01 0.01 70 1010.3
20260509024604 45 5 0.0 1.0 0.00 0.01 0.01 70 1010.3
20260509024104 46 5 0.0 1.0 0.00 0.01 0.01 69 1010.3
20260509023604 46 7 0.0 1.0 0.00 0.01 0.01 69 1010.4
20260509023104 46 5 0.0 1.0 0.00 0.01 0.01 69 1010.4
20260509022605 46 9 0.0 1.0 0.00 0.01 0.01 68 1010.6
20260509022104 47 9 0.0 0.0 0.00 0.01 0.01 68 1010.6
20260509021604 47 9 0.0 0.0 0.00 0.01 0.01 68 1010.6
20260509020105 48 9 0.0 1.0 0.00 0.01 0.01 66 1010.2
20260509015605 48 12 0.0 3.0 0.00 0.01 0.01 66 1010.2
20260509015105 48 14 0.0 3.0 0.00 0.01 0.01 65 1010.2
20260509014604 49 13 0.0 1.0 0.00 0.01 0.01 65 1010.2
20260509013604 49 14 0.0 1.0 0.00 0.01 0.01 66 1009.7
20260509013105 49 16 0.0 1.0 0.00 0.01 0.01 66 1009.7
20260509012604 49 338 0.0 2.0 0.00 0.01 0.01 65 1009.7
20260509012105 49 338 0.0 3.0 0.00 0.01 0.01 63 1009.7
20260509011104 50 337 1.0 3.0 0.00 0.01 0.01 62 1009.7
20260509010605 50 335 0.0 0.0 0.00 0.01 0.01 61 1009.7
20260509005604 51 335 0.0 1.0 0.00 0.01 0.01 61 1009.7
20260509005104 51 335 0.0 1.0 0.00 0.01 0.01 60 1009.7
20260509004604 51 335 0.0 1.0 0.00 0.01 0.01 60 1009.1
20260509004104 51 335 0.0 1.0 0.00 0.01 0.01 60 1009.1
20260509003604 52 335 0.0 1.0 0.00 0.01 0.01 60 1009.1
20260509003104 52 335 0.0 1.0 0.00 0.01 0.01 60 1009.1
20260509002604 52 335 0.0 1.0 0.00 0.01 0.01 59 1009.1
20260509002104 52 335 0.0 2.0 0.00 0.01 0.01 60 1009.1
20260509001604 52 335 0.0 2.0 0.00 0.01 0.01 58 1009.1
20260509001104 53 332 0.0 2.0 0.00 0.01 0.01 57 1009.1
20260509000604 53 333 0.0 2.0 0.00 0.01 0.01 56 1009.1
20260509000104 53 333 1.0 2.0 0.00 0.01 0.01 55 1009.1
20260508235604 53 332 0.0 1.0 0.00 0.01 0.01 56 1009.1
20260508235104 53 332 0.0 1.0 0.00 0.01 0.01 56 1009.1
20260508234604 54 332 0.0 1.0 0.00 0.01 0.01 55 1009.1
20260508234104 54 332 0.0 1.0 0.00 0.01 0.01 55 1009.1
20260508233604 54 332 0.0 1.0 0.00 0.01 0.01 54 1009.0
20260508233104 54 332 0.0 1.0 0.00 0.01 0.01 54 1009.0
20260508232605 54 332 0.0 1.0 0.00 0.01 0.01 53 1009.0
20260508232104 55 332 0.0 3.0 0.00 0.01 0.01 53 1009.0
20260508231604 55 332 0.0 3.0 0.00 0.01 0.01 53 1008.9
20260508231104 55 332 1.0 3.0 0.00 0.01 0.01 54 1008.9
20260508230604 55 331 1.0 5.0 0.00 0.01 0.01 53 1008.9
20260508230104 55 331 2.0 5.0 0.00 0.01 0.01 53 1008.9
20260508225604 55 5 2.0 10.0 0.00 0.01 0.01 52 1008.9
20260508225104 56 12 2.0 10.0 0.00 0.01 0.01 52 1009.0
20260508224604 56 275 1.0 10.0 0.00 0.01 0.01 51 1009.0
20260508224104 56 261 2.0 5.0 0.00 0.01 0.01 51 1009.0
20260508223604 56 306 2.0 3.0 0.00 0.01 0.01 51 1009.0
20260508222605 56 355 2.0 7.0 0.00 0.01 0.01 49 1010.6
20260508222104 57 355 4.0 8.0 0.00 0.01 0.01 49 1010.6
20260508221604 57 11 3.0 8.0 0.00 0.01 0.01 49 1010.6
20260508220604 57 32 1.0 5.0 0.00 0.01 0.01 51 1010.6
20260508220104 57 5 2.0 5.0 0.00 0.01 0.01 52 1010.6
20260508215604 57 205 1.0 6.0 0.00 0.01 0.01 51 1010.6
20260508215104 57 205 1.0 6.0 0.00 0.01 0.01 50 1010.6
20260508214605 56 209 3.0 6.0 0.00 0.01 0.01 54 1010.6
20260508214105 56 336 1.0 8.0 0.00 0.01 0.01 54 1010.6
20260508213604 56 333 3.0 8.0 0.00 0.01 0.01 51 1010.6
20260508213104 56 339 4.0 8.0 0.00 0.01 0.01 52 1010.6
20260508212604 56 327 0.0 7.0 0.00 0.01 0.01 52 1010.6
20260508212105 57 349 2.0 7.0 0.00 0.01 0.01 50 1010.6
20260508211604 57 274 2.0 8.0 0.00 0.01 0.01 51 1010.6
20260508211104 57 323 3.0 8.0 0.00 0.01 0.01 51 1010.6
20260508210605 57 301 4.0 8.0 0.00 0.01 0.01 53 1010.6
20260508210104 56 296 1.0 7.0 0.00 0.01 0.01 51 1010.6
20260508205604 56 283 2.0 7.0 0.00 0.01 0.01 54 1010.6
20260508205104 56 274 1.0 5.0 0.00 0.01 0.01 52 1010.6
20260508204604 56 296 2.0 10.0 0.00 0.01 0.01 52 1010.6
20260508204104 56 261 2.0 10.0 0.00 0.01 0.01 54 1010.6
20260508203604 56 314 2.0 10.0 0.00 0.01 0.01 51 1010.6
20260508203104 56 337 2.0 12.0 0.00 0.01 0.01 52 1010.6
20260508202604 56 299 3.0 12.0 0.00 0.01 0.01 52 1010.6
20260508202104 56 329 1.0 10.0 0.00 0.01 0.01 55 1010.6
20260508201604 56 319 2.0 10.0 0.00 0.01 0.01 55 1010.6
20260508201104 55 18 5.0 10.0 0.00 0.01 0.01 55 1010.6
20260508200604 54 359 3.0 9.0 0.00 0.01 0.01 60 1010.6
20260508200104 53 35 1.0 8.0 0.00 0.01 0.01 55 1010.6
20260508195104 53 339 3.0 9.0 0.00 0.01 0.01 57 1010.6
20260508194604 53 338 2.0 9.0 0.00 0.01 0.01 57 1010.6
20260508194104 53 280 2.0 9.0 0.00 0.01 0.01 57 1010.6
20260508193604 53 311 1.0 3.0 0.00 0.01 0.01 56 1010.6
20260508193104 53 311 1.0 3.0 0.00 0.01 0.01 56 1010.6
20260508192604 53 298 1.0 7.0 0.00 0.01 0.01 55 1010.6
20260508191604 54 335 2.0 9.0 0.00 0.01 0.01 58 1010.6
20260508191104 54 207 2.0 9.0 0.00 0.01 0.01 58 1010.6
20260508190604 53 32 1.0 7.0 0.00 0.01 0.01 59 1010.6
20260508185104 52 247 4.0 14.0 0.00 0.01 0.01 61 1010.6
20260508184604 51 263 5.0 14.0 0.00 0.01 0.01 58 1010.6
20260508184104 52 271 7.0 14.0 0.00 0.01 0.01 59 1010.6
20260508183604 52 316 2.0 12.0 0.00 0.01 0.01 58 1010.6
20260508183104 52 5 3.0 20.0 0.00 0.01 0.01 62 1011.2
20260508182605 52 299 1.0 20.0 0.00 0.01 0.01 60 1011.2
20260508182104 52 248 7.0 14.0 0.00 0.01 0.01 61 1011.2
20260508181104 51 316 5.0 14.0 0.00 0.01 0.01 64 1011.2
20260508180604 51 299 3.0 14.0 0.00 0.01 0.01 63 1011.2
20260508180105 51 271 6.0 16.0 0.00 0.01 0.01 63 1011.2
20260508175604 51 321 3.0 16.0 0.00 0.01 0.01 63 1011.2
20260508175104 51 314 9.0 16.0 0.00 0.01 0.01 64 1011.2
20260508174104 51 307 7.0 20.0 0.00 0.01 0.01 65 1011.2
20260508173104 50 286 3.0 16.0 0.00 0.01 0.01 67 1011.2
20260508172604 50 308 8.0 16.0 0.00 0.01 0.01 66 1011.6
20260508172104 49 310 3.0 18.0 0.00 0.01 0.01 67 1011.6
20260508171605 48 297 4.0 18.0 0.00 0.01 0.01 67 1011.6
20260508165604 48 254 8.0 14.0 0.00 0.01 0.01 71 1011.6
20260508165104 48 330 3.0 9.0 0.00 0.01 0.01 70 1011.6
20260508164604 48 324 5.0 9.0 0.00 0.01 0.01 72 1011.6
20260508164104 47 296 3.0 10.0 0.00 0.01 0.01 72 1011.6
20260508163604 48 332 3.0 10.0 0.00 0.01 0.01 71 1011.5
20260508162604 47 343 4.0 8.0 0.00 0.01 0.01 74 1011.5
20260508162104 47 355 3.0 6.0 0.00 0.01 0.01 76 1011.5
20260508161604 47 10 0.0 8.0 0.00 0.01 0.01 79 1011.5
20260508161104 46 9 3.0 12.0 0.00 0.01 0.01 77 1011.5
20260508160604 46 336 5.0 12.0 0.00 0.01 0.01 77 1011.5
20260508160104 45 347 3.0 9.0 0.00 0.01 0.01 79 1011.5
20260508155604 45 5 3.0 9.0 0.00 0.01 0.01 80 1011.5
20260508154604 43 18 4.0 12.0 0.00 0.01 0.01 81 1013.2
20260508154104 43 354 3.0 12.0 0.00 0.01 0.01 82 1013.3
20260508153604 43 350 2.0 8.0 0.00 0.01 0.01 82 1013.3
20260508153104 43 298 4.0 6.0 0.00 0.01 0.01 84 1013.3
20260508152604 43 305 2.0 6.0 0.00 0.01 0.01 85 1013.2
20260508151104 41 355 0.0 5.0 0.00 0.01 0.01 87 1011.0
20260508150605 40 12 2.0 8.0 0.00 0.01 0.01 87 1011.0
20260508145604 40 352 3.0 9.0 0.00 0.01 0.01 86 1011.0
20260508145105 40 357 3.0 9.0 0.00 0.01 0.01 86 1011.0
20260508144604 41 344 2.0 5.0 0.00 0.01 0.01 85 1011.0
20260508144104 41 346 1.0 9.0 0.00 0.01 0.01 85 1011.0
20260508143104 41 346 5.0 10.0 0.00 0.01 0.01 85 1011.0
20260508142604 41 325 3.0 6.0 0.00 0.01 0.01 86 1011.0
20260508142105 41 350 2.0 5.0 0.00 0.01 0.01 86 1011.0
20260508141604 40 351 1.0 6.0 0.00 0.01 0.01 85 1011.0
20260508140604 41 331 4.0 8.0 0.00 0.01 0.01 85 1010.3
20260508135104 41 346 3.0 8.0 0.01 0.01 0.01 86 1010.3
20260508134604 41 10 4.0 8.0 0.01 0.01 0.01 86 1010.3
20260508134104 41 354 1.0 3.0 0.01 0.01 0.01 86 1010.3
20260508133604 40 347 0.0 5.0 0.01 0.01 0.01 85 1010.3
20260508133104 40 349 2.0 5.0 0.01 0.01 0.01 84 1010.3
20260508132604 40 310 1.0 3.0 0.01 0.01 0.01 84 1010.3
20260508131604 40 271 0.0 7.0 0.01 0.01 0.01 84 1010.3
20260508131104 40 268 3.0 7.0 0.01 0.01 0.01 84 1010.3
20260508130604 40 236 2.0 3.0 0.01 0.01 0.01 84 1010.3
20260508130105 40 209 0.0 3.0 0.00 0.00 0.00 83 1010.3
20260508125604 41 209 0.0 3.0 0.00 0.00 0.00 83 1010.3
20260508125104 41 209 1.0 3.0 0.00 0.00 0.00 83 1010.3
20260508124604 41 209 0.0 5.0 0.00 0.00 0.00 83 1010.3
20260508124104 41 209 3.0 6.0 0.00 0.00 0.00 83 1010.3